Главная страница
METAR-TAF:

METAR-TAF

Аэропорты :

Cape Parry, Северо-Западные Территории, Канада

широта: 70-06N, долгота: 124-43W, высота над уровнем моря: 87 м

Текущие метеонаблюдения

Эта сводка был подготовлена 47 минут назад, в 10:00 UTC
Ветер 20 Узел от восточно-северо-восточный с порывами до 26 Узел
Температура -23°C
Влажность 76%
Давление 995 hPa
Сплошная облачность на высоте 13000 фута

METAR: CZCP 121000Z AUTO 06020G26KT ////SM //// OVC130 M23/M26 A2939

Время: 03:47 (10:47 UTC)


TAF: отсутствует

Метеонаблюдения и прогнозы для более 4000 аэропортов (сводки METAR и TAF).

Имеющиеся станции представлены на карте желтыми и красными точками.

Чтобы увидеть название станции, наведите на нее мышь.

Затем щелкните, чтобы увидеть метеонаблюдения и метеопрогнозы.

Управление картой: чтобы увеличить масштаб, щелкните зеленые кнопки с черным крестиком; чтобы уменьшить масштаб, щелкните зеленую кнопку с тире; для просмотра соседних карт щелкайте зеленые стрелки.


METAR-TAF: